Index of /20260502/WXO-DD/model_rdps/10km/12/066
Name Last modified Size Description
Parent Directory -
20260502T12Z_MSC_RDPS_AbsoluteVorticity_IsbL-0250_RLatLon0.09_PT066H.grib2 2026-05-02 14:58 615K
20260502T12Z_MSC_RDPS_AbsoluteVorticity_IsbL-0500_RLatLon0.09_PT066H.grib2 2026-05-02 14:58 559K
20260502T12Z_MSC_RDPS_AbsoluteVorticity_IsbL-0700_RLatLon0.09_PT066H.grib2 2026-05-02 14:58 614K
20260502T12Z_MSC_RDPS_AbsoluteVorticity_IsbL-0850_RLatLon0.09_PT066H.grib2 2026-05-02 14:58 753K
20260502T12Z_MSC_RDPS_AirTemp_AGL-120m_RLatLon0.09_PT066H.grib2 2026-05-02 14:58 372K
20260502T12Z_MSC_RDPS_AirTemp_AGL-2m_RLatLon0.09_PT066H.grib2 2026-05-02 14:58 627K
20260502T12Z_MSC_RDPS_AirTemp_AGL-40m_RLatLon0.09_PT066H.grib2 2026-05-02 14:58 385K
20260502T12Z_MSC_RDPS_AirTemp_AGL-80m_RLatLon0.09_PT066H.grib2 2026-05-02 14:58 376K
20260502T12Z_MSC_RDPS_AirTemp_IsbL-0001_RLatLon0.09_PT066H.grib2 2026-05-02 14:58 302K
20260502T12Z_MSC_RDPS_AirTemp_IsbL-0005_RLatLon0.09_PT066H.grib2 2026-05-02 14:58 293K
20260502T12Z_MSC_RDPS_AirTemp_IsbL-0010_RLatLon0.09_PT066H.grib2 2026-05-02 14:58 302K
20260502T12Z_MSC_RDPS_AirTemp_IsbL-0020_RLatLon0.09_PT066H.grib2 2026-05-02 14:58 319K
20260502T12Z_MSC_RDPS_AirTemp_IsbL-0030_RLatLon0.09_PT066H.grib2 2026-05-02 14:58 338K
20260502T12Z_MSC_RDPS_AirTemp_IsbL-0050_RLatLon0.09_PT066H.grib2 2026-05-02 14:58 318K
20260502T12Z_MSC_RDPS_AirTemp_IsbL-0100_RLatLon0.09_PT066H.grib2 2026-05-02 14:58 433K
20260502T12Z_MSC_RDPS_AirTemp_IsbL-0150_RLatLon0.09_PT066H.grib2 2026-05-02 14:58 420K
20260502T12Z_MSC_RDPS_AirTemp_IsbL-0175_RLatLon0.09_PT066H.grib2 2026-05-02 14:58 411K
20260502T12Z_MSC_RDPS_AirTemp_IsbL-0200_RLatLon0.09_PT066H.grib2 2026-05-02 14:58 414K
20260502T12Z_MSC_RDPS_AirTemp_IsbL-0225_RLatLon0.09_PT066H.grib2 2026-05-02 14:58 418K
20260502T12Z_MSC_RDPS_AirTemp_IsbL-0250_RLatLon0.09_PT066H.grib2 2026-05-02 14:58 423K
20260502T12Z_MSC_RDPS_AirTemp_IsbL-0275_RLatLon0.09_PT066H.grib2 2026-05-02 14:58 404K
20260502T12Z_MSC_RDPS_AirTemp_IsbL-0300_RLatLon0.09_PT066H.grib2 2026-05-02 14:58 412K
20260502T12Z_MSC_RDPS_AirTemp_IsbL-0350_RLatLon0.09_PT066H.grib2 2026-05-02 14:58 428K
20260502T12Z_MSC_RDPS_AirTemp_IsbL-0400_RLatLon0.09_PT066H.grib2 2026-05-02 14:58 431K
20260502T12Z_MSC_RDPS_AirTemp_IsbL-0450_RLatLon0.09_PT066H.grib2 2026-05-02 14:58 438K
20260502T12Z_MSC_RDPS_AirTemp_IsbL-0500_RLatLon0.09_PT066H.grib2 2026-05-02 14:58 447K
20260502T12Z_MSC_RDPS_AirTemp_IsbL-0550_RLatLon0.09_PT066H.grib2 2026-05-02 14:58 464K
20260502T12Z_MSC_RDPS_AirTemp_IsbL-0600_RLatLon0.09_PT066H.grib2 2026-05-02 14:58 445K
20260502T12Z_MSC_RDPS_AirTemp_IsbL-0650_RLatLon0.09_PT066H.grib2 2026-05-02 14:58 459K
20260502T12Z_MSC_RDPS_AirTemp_IsbL-0700_RLatLon0.09_PT066H.grib2 2026-05-02 14:58 376K
20260502T12Z_MSC_RDPS_AirTemp_IsbL-0750_RLatLon0.09_PT066H.grib2 2026-05-02 14:58 408K
20260502T12Z_MSC_RDPS_AirTemp_IsbL-0800_RLatLon0.09_PT066H.grib2 2026-05-02 14:58 457K
20260502T12Z_MSC_RDPS_AirTemp_IsbL-0850_RLatLon0.09_PT066H.grib2 2026-05-02 14:58 512K
20260502T12Z_MSC_RDPS_AirTemp_IsbL-0875_RLatLon0.09_PT066H.grib2 2026-05-02 14:58 530K
20260502T12Z_MSC_RDPS_AirTemp_IsbL-0900_RLatLon0.09_PT066H.grib2 2026-05-02 14:58 533K
20260502T12Z_MSC_RDPS_AirTemp_IsbL-0925_RLatLon0.09_PT066H.grib2 2026-05-02 14:58 524K
20260502T12Z_MSC_RDPS_AirTemp_IsbL-0950_RLatLon0.09_PT066H.grib2 2026-05-02 14:58 520K
20260502T12Z_MSC_RDPS_AirTemp_IsbL-0970_RLatLon0.09_PT066H.grib2 2026-05-02 14:58 509K
20260502T12Z_MSC_RDPS_AirTemp_IsbL-0985_RLatLon0.09_PT066H.grib2 2026-05-02 14:58 496K
20260502T12Z_MSC_RDPS_AirTemp_IsbL-1000_RLatLon0.09_PT066H.grib2 2026-05-02 14:58 483K
20260502T12Z_MSC_RDPS_AirTemp_IsbL-1015_RLatLon0.09_PT066H.grib2 2026-05-02 14:58 489K
20260502T12Z_MSC_RDPS_Albedo_Sfc_RLatLon0.09_PT066H.grib2 2026-05-02 14:58 156K
20260502T12Z_MSC_RDPS_CAPE_Sfc_RLatLon0.09_PT066H.grib2 2026-05-02 14:58 1.6M
20260502T12Z_MSC_RDPS_CIN_Sfc_RLatLon0.09_PT066H.grib2 2026-05-02 14:58 1.2M
20260502T12Z_MSC_RDPS_CloudWater_EAtm_RLatLon0.09_PT066H.grib2 2026-05-02 14:58 222K
20260502T12Z_MSC_RDPS_ConvectivePrecip-Accum_Sfc_RLatLon0.09_PT066H.grib2 2026-05-02 14:58 1.2M
20260502T12Z_MSC_RDPS_DewPointDepression_AGL-2m_RLatLon0.09_PT066H.grib2 2026-05-02 14:58 398K
20260502T12Z_MSC_RDPS_DewPointDepression_IsbL-0001_RLatLon0.09_PT066H.grib2 2026-05-02 14:58 193
20260502T12Z_MSC_RDPS_DewPointDepression_IsbL-0005_RLatLon0.09_PT066H.grib2 2026-05-02 14:58 193
20260502T12Z_MSC_RDPS_DewPointDepression_IsbL-0010_RLatLon0.09_PT066H.grib2 2026-05-02 14:58 193
20260502T12Z_MSC_RDPS_DewPointDepression_IsbL-0020_RLatLon0.09_PT066H.grib2 2026-05-02 14:58 193
20260502T12Z_MSC_RDPS_DewPointDepression_IsbL-0030_RLatLon0.09_PT066H.grib2 2026-05-02 14:58 193
20260502T12Z_MSC_RDPS_DewPointDepression_IsbL-0050_RLatLon0.09_PT066H.grib2 2026-05-02 14:58 103K
20260502T12Z_MSC_RDPS_DewPointDepression_IsbL-0100_RLatLon0.09_PT066H.grib2 2026-05-02 14:58 120K
20260502T12Z_MSC_RDPS_DewPointDepression_IsbL-0150_RLatLon0.09_PT066H.grib2 2026-05-02 14:58 145K
20260502T12Z_MSC_RDPS_DewPointDepression_IsbL-0175_RLatLon0.09_PT066H.grib2 2026-05-02 14:58 182K
20260502T12Z_MSC_RDPS_DewPointDepression_IsbL-0200_RLatLon0.09_PT066H.grib2 2026-05-02 14:58 219K
20260502T12Z_MSC_RDPS_DewPointDepression_IsbL-0225_RLatLon0.09_PT066H.grib2 2026-05-02 14:58 257K
20260502T12Z_MSC_RDPS_DewPointDepression_IsbL-0250_RLatLon0.09_PT066H.grib2 2026-05-02 14:58 299K
20260502T12Z_MSC_RDPS_DewPointDepression_IsbL-0275_RLatLon0.09_PT066H.grib2 2026-05-02 14:58 306K
20260502T12Z_MSC_RDPS_DewPointDepression_IsbL-0300_RLatLon0.09_PT066H.grib2 2026-05-02 14:58 322K
20260502T12Z_MSC_RDPS_DewPointDepression_IsbL-0350_RLatLon0.09_PT066H.grib2 2026-05-02 14:58 327K
20260502T12Z_MSC_RDPS_DewPointDepression_IsbL-0400_RLatLon0.09_PT066H.grib2 2026-05-02 14:58 340K
20260502T12Z_MSC_RDPS_DewPointDepression_IsbL-0450_RLatLon0.09_PT066H.grib2 2026-05-02 14:58 343K
20260502T12Z_MSC_RDPS_DewPointDepression_IsbL-0500_RLatLon0.09_PT066H.grib2 2026-05-02 14:58 347K
20260502T12Z_MSC_RDPS_DewPointDepression_IsbL-0550_RLatLon0.09_PT066H.grib2 2026-05-02 14:58 356K
20260502T12Z_MSC_RDPS_DewPointDepression_IsbL-0600_RLatLon0.09_PT066H.grib2 2026-05-02 14:58 366K
20260502T12Z_MSC_RDPS_DewPointDepression_IsbL-0650_RLatLon0.09_PT066H.grib2 2026-05-02 14:58 375K
20260502T12Z_MSC_RDPS_DewPointDepression_IsbL-0700_RLatLon0.09_PT066H.grib2 2026-05-02 14:58 389K
20260502T12Z_MSC_RDPS_DewPointDepression_IsbL-0750_RLatLon0.09_PT066H.grib2 2026-05-02 14:58 405K
20260502T12Z_MSC_RDPS_DewPointDepression_IsbL-0800_RLatLon0.09_PT066H.grib2 2026-05-02 14:58 440K
20260502T12Z_MSC_RDPS_DewPointDepression_IsbL-0850_RLatLon0.09_PT066H.grib2 2026-05-02 14:58 473K
20260502T12Z_MSC_RDPS_DewPointDepression_IsbL-0875_RLatLon0.09_PT066H.grib2 2026-05-02 14:58 472K
20260502T12Z_MSC_RDPS_DewPointDepression_IsbL-0900_RLatLon0.09_PT066H.grib2 2026-05-02 14:58 459K
20260502T12Z_MSC_RDPS_DewPointDepression_IsbL-0925_RLatLon0.09_PT066H.grib2 2026-05-02 14:58 445K
20260502T12Z_MSC_RDPS_DewPointDepression_IsbL-0950_RLatLon0.09_PT066H.grib2 2026-05-02 14:58 438K
20260502T12Z_MSC_RDPS_DewPointDepression_IsbL-0970_RLatLon0.09_PT066H.grib2 2026-05-02 14:58 432K
20260502T12Z_MSC_RDPS_DewPointDepression_IsbL-0985_RLatLon0.09_PT066H.grib2 2026-05-02 14:58 427K
20260502T12Z_MSC_RDPS_DewPointDepression_IsbL-1000_RLatLon0.09_PT066H.grib2 2026-05-02 14:58 421K
20260502T12Z_MSC_RDPS_DewPointDepression_IsbL-1015_RLatLon0.09_PT066H.grib2 2026-05-02 14:58 414K
20260502T12Z_MSC_RDPS_DewPoint_AGL-2m_RLatLon0.09_PT066H.grib2 2026-05-02 14:58 302K
20260502T12Z_MSC_RDPS_DownwardLongwaveRadiationFlux-Accum_Sfc_RLatLon0.09_PT066H.grib2 2026-05-02 14:58 418K
20260502T12Z_MSC_RDPS_DownwardShortwaveRadiationFlux-Accum_NTAtm_RLatLon0.09_PT066H.grib2 2026-05-02 14:58 107K
20260502T12Z_MSC_RDPS_DownwardShortwaveRadiationFlux-Accum_Sfc_RLatLon0.09_PT066H.grib2 2026-05-02 14:58 621K
20260502T12Z_MSC_RDPS_FreezingRain-Accum12h_Sfc_RLatLon0.09_PT066H.grib2 2026-05-02 14:58 62K
20260502T12Z_MSC_RDPS_FreezingRain-Accum1h_Sfc_RLatLon0.09_PT066H.grib2 2026-05-02 14:58 41K
20260502T12Z_MSC_RDPS_FreezingRain-Accum24h_Sfc_RLatLon0.09_PT066H.grib2 2026-05-02 14:58 115K
20260502T12Z_MSC_RDPS_FreezingRain-Accum3h_Sfc_RLatLon0.09_PT066H.grib2 2026-05-02 14:58 46K
20260502T12Z_MSC_RDPS_FreezingRain-Accum6h_Sfc_RLatLon0.09_PT066H.grib2 2026-05-02 14:58 54K
20260502T12Z_MSC_RDPS_FreezingRain-Accum_Sfc_RLatLon0.09_PT066H.grib2 2026-05-02 14:58 192K
20260502T12Z_MSC_RDPS_GeopotentialHeight_IsbL-0001_RLatLon0.09_PT066H.grib2 2026-05-02 14:58 238K
20260502T12Z_MSC_RDPS_GeopotentialHeight_IsbL-0005_RLatLon0.09_PT066H.grib2 2026-05-02 14:58 338K
20260502T12Z_MSC_RDPS_GeopotentialHeight_IsbL-0010_RLatLon0.09_PT066H.grib2 2026-05-02 14:58 307K
20260502T12Z_MSC_RDPS_GeopotentialHeight_IsbL-0020_RLatLon0.09_PT066H.grib2 2026-05-02 14:58 404K
20260502T12Z_MSC_RDPS_GeopotentialHeight_IsbL-0030_RLatLon0.09_PT066H.grib2 2026-05-02 14:58 382K
20260502T12Z_MSC_RDPS_GeopotentialHeight_IsbL-0050_RLatLon0.09_PT066H.grib2 2026-05-02 14:58 312K
20260502T12Z_MSC_RDPS_GeopotentialHeight_IsbL-0100_RLatLon0.09_PT066H.grib2 2026-05-02 14:58 288K
20260502T12Z_MSC_RDPS_GeopotentialHeight_IsbL-0150_RLatLon0.09_PT066H.grib2 2026-05-02 14:58 230K
20260502T12Z_MSC_RDPS_GeopotentialHeight_IsbL-0175_RLatLon0.09_PT066H.grib2 2026-05-02 14:58 233K
20260502T12Z_MSC_RDPS_GeopotentialHeight_IsbL-0200_RLatLon0.09_PT066H.grib2 2026-05-02 14:58 236K
20260502T12Z_MSC_RDPS_GeopotentialHeight_IsbL-0225_RLatLon0.09_PT066H.grib2 2026-05-02 14:58 237K
20260502T12Z_MSC_RDPS_GeopotentialHeight_IsbL-0250_RLatLon0.09_PT066H.grib2 2026-05-02 14:58 238K
20260502T12Z_MSC_RDPS_GeopotentialHeight_IsbL-0275_RLatLon0.09_PT066H.grib2 2026-05-02 14:58 237K
20260502T12Z_MSC_RDPS_GeopotentialHeight_IsbL-0300_RLatLon0.09_PT066H.grib2 2026-05-02 14:58 236K
20260502T12Z_MSC_RDPS_GeopotentialHeight_IsbL-0350_RLatLon0.09_PT066H.grib2 2026-05-02 14:58 232K
20260502T12Z_MSC_RDPS_GeopotentialHeight_IsbL-0400_RLatLon0.09_PT066H.grib2 2026-05-02 14:58 302K
20260502T12Z_MSC_RDPS_GeopotentialHeight_IsbL-0450_RLatLon0.09_PT066H.grib2 2026-05-02 14:58 298K
20260502T12Z_MSC_RDPS_GeopotentialHeight_IsbL-0500_RLatLon0.09_PT066H.grib2 2026-05-02 14:58 295K
20260502T12Z_MSC_RDPS_GeopotentialHeight_IsbL-0550_RLatLon0.09_PT066H.grib2 2026-05-02 14:58 291K
20260502T12Z_MSC_RDPS_GeopotentialHeight_IsbL-0600_RLatLon0.09_PT066H.grib2 2026-05-02 14:58 261K
20260502T12Z_MSC_RDPS_GeopotentialHeight_IsbL-0650_RLatLon0.09_PT066H.grib2 2026-05-02 14:58 258K
20260502T12Z_MSC_RDPS_GeopotentialHeight_IsbL-0700_RLatLon0.09_PT066H.grib2 2026-05-02 14:58 257K
20260502T12Z_MSC_RDPS_GeopotentialHeight_IsbL-0750_RLatLon0.09_PT066H.grib2 2026-05-02 14:58 343K
20260502T12Z_MSC_RDPS_GeopotentialHeight_IsbL-0800_RLatLon0.09_PT066H.grib2 2026-05-02 14:58 352K
20260502T12Z_MSC_RDPS_GeopotentialHeight_IsbL-0850_RLatLon0.09_PT066H.grib2 2026-05-02 14:58 276K
20260502T12Z_MSC_RDPS_GeopotentialHeight_IsbL-0875_RLatLon0.09_PT066H.grib2 2026-05-02 14:58 278K
20260502T12Z_MSC_RDPS_GeopotentialHeight_IsbL-0900_RLatLon0.09_PT066H.grib2 2026-05-02 14:58 280K
20260502T12Z_MSC_RDPS_GeopotentialHeight_IsbL-0925_RLatLon0.09_PT066H.grib2 2026-05-02 14:58 283K
20260502T12Z_MSC_RDPS_GeopotentialHeight_IsbL-0950_RLatLon0.09_PT066H.grib2 2026-05-02 14:58 285K
20260502T12Z_MSC_RDPS_GeopotentialHeight_IsbL-0970_RLatLon0.09_PT066H.grib2 2026-05-02 14:58 288K
20260502T12Z_MSC_RDPS_GeopotentialHeight_IsbL-0985_RLatLon0.09_PT066H.grib2 2026-05-02 14:58 293K
20260502T12Z_MSC_RDPS_GeopotentialHeight_IsbL-1000_RLatLon0.09_PT066H.grib2 2026-05-02 14:58 326K
20260502T12Z_MSC_RDPS_GeopotentialHeight_IsbL-1015_RLatLon0.09_PT066H.grib2 2026-05-02 14:58 336K
20260502T12Z_MSC_RDPS_Humidex_Sfc_RLatLon0.09_PT066H.grib2 2026-05-02 14:58 2.3M
20260502T12Z_MSC_RDPS_IcePellets-Accum12h_Sfc_RLatLon0.09_PT066H.grib2 2026-05-02 14:58 19K
20260502T12Z_MSC_RDPS_IcePellets-Accum1h_Sfc_RLatLon0.09_PT066H.grib2 2026-05-02 14:58 11K
20260502T12Z_MSC_RDPS_IcePellets-Accum24h_Sfc_RLatLon0.09_PT066H.grib2 2026-05-02 14:58 23K
20260502T12Z_MSC_RDPS_IcePellets-Accum3h_Sfc_RLatLon0.09_PT066H.grib2 2026-05-02 14:58 13K
20260502T12Z_MSC_RDPS_IcePellets-Accum6h_Sfc_RLatLon0.09_PT066H.grib2 2026-05-02 14:58 17K
20260502T12Z_MSC_RDPS_IcePellets-Accum_Sfc_RLatLon0.09_PT066H.grib2 2026-05-02 14:58 35K
20260502T12Z_MSC_RDPS_KIndex_Sfc_RLatLon0.09_PT066H.grib2 2026-05-02 14:58 2.5M
20260502T12Z_MSC_RDPS_LatentHeatNetFlux_Sfc_RLatLon0.09_PT066H.grib2 2026-05-02 14:58 425K
20260502T12Z_MSC_RDPS_LiftedIndex-MU-VT_IsbL-0500_RLatLon0.09_PT066H.grib2 2026-05-02 14:58 2.4M
20260502T12Z_MSC_RDPS_NetLongwaveRadiationFlux-Accum_Sfc_RLatLon0.09_PT066H.grib2 2026-05-02 14:58 602K
20260502T12Z_MSC_RDPS_NetShortwaveRadiationFlux-Accum_Sfc_RLatLon0.09_PT066H.grib2 2026-05-02 14:58 622K
20260502T12Z_MSC_RDPS_PlanetaryBoundaryLayerHeight_Sfc_RLatLon0.09_PT066H.grib2 2026-05-02 14:58 1.1M
20260502T12Z_MSC_RDPS_Precip-Accum12h_Sfc_RLatLon0.09_PT066H.grib2 2026-05-02 14:58 1.8M
20260502T12Z_MSC_RDPS_Precip-Accum1h_Sfc_RLatLon0.09_PT066H.grib2 2026-05-02 14:58 1.3M
20260502T12Z_MSC_RDPS_Precip-Accum24h_Sfc_RLatLon0.09_PT066H.grib2 2026-05-02 14:58 2.0M
20260502T12Z_MSC_RDPS_Precip-Accum3h_Sfc_RLatLon0.09_PT066H.grib2 2026-05-02 14:58 1.5M
20260502T12Z_MSC_RDPS_Precip-Accum6h_Sfc_RLatLon0.09_PT066H.grib2 2026-05-02 14:58 1.5M
20260502T12Z_MSC_RDPS_Precip-Accum_Sfc_RLatLon0.09_PT066H.grib2 2026-05-02 14:58 2.2M
20260502T12Z_MSC_RDPS_PrecipRate_Sfc_RLatLon0.09_PT066H.grib2 2026-05-02 14:58 192K
20260502T12Z_MSC_RDPS_PrecipType-Instant_Sfc_RLatLon0.09_PT066H.grib2 2026-05-02 14:58 594K
20260502T12Z_MSC_RDPS_Pressure-Trend3h_Sfc_RLatLon0.09_PT066H.grib2 2026-05-02 14:58 1.2M
20260502T12Z_MSC_RDPS_Pressure_MSL_RLatLon0.09_PT066H.grib2 2026-05-02 14:58 238K
20260502T12Z_MSC_RDPS_Pressure_PVU-1.5_RLatLon0.09_PT066H.grib2 2026-05-02 14:58 2.5M
20260502T12Z_MSC_RDPS_Pressure_PVU-1_RLatLon0.09_PT066H.grib2 2026-05-02 14:58 2.4M
20260502T12Z_MSC_RDPS_Pressure_PVU-2_RLatLon0.09_PT066H.grib2 2026-05-02 14:58 2.4M
20260502T12Z_MSC_RDPS_Pressure_Sfc_RLatLon0.09_PT066H.grib2 2026-05-02 14:58 498K
20260502T12Z_MSC_RDPS_RadiativeTemp_Sfc_RLatLon0.09_PT066H.grib2 2026-05-02 14:58 300K
20260502T12Z_MSC_RDPS_Rain-Accum12h_Sfc_RLatLon0.09_PT066H.grib2 2026-05-02 14:58 1.2M
20260502T12Z_MSC_RDPS_Rain-Accum1h_Sfc_RLatLon0.09_PT066H.grib2 2026-05-02 14:58 661K
20260502T12Z_MSC_RDPS_Rain-Accum24h_Sfc_RLatLon0.09_PT066H.grib2 2026-05-02 14:58 1.5M
20260502T12Z_MSC_RDPS_Rain-Accum3h_Sfc_RLatLon0.09_PT066H.grib2 2026-05-02 14:58 816K
20260502T12Z_MSC_RDPS_Rain-Accum6h_Sfc_RLatLon0.09_PT066H.grib2 2026-05-02 14:58 1.1M
20260502T12Z_MSC_RDPS_Rain-Accum_Sfc_RLatLon0.09_PT066H.grib2 2026-05-02 14:58 1.8M
20260502T12Z_MSC_RDPS_RelativeHumidity_AGL-2m_RLatLon0.09_PT066H.grib2 2026-05-02 14:58 1.0M
20260502T12Z_MSC_RDPS_RelativeHumidity_IsbL-0010_RLatLon0.09_PT066H.grib2 2026-05-02 14:58 612K
20260502T12Z_MSC_RDPS_RelativeHumidity_IsbL-0020_RLatLon0.09_PT066H.grib2 2026-05-02 14:58 738K
20260502T12Z_MSC_RDPS_RelativeHumidity_IsbL-0030_RLatLon0.09_PT066H.grib2 2026-05-02 14:58 637K
20260502T12Z_MSC_RDPS_RelativeHumidity_IsbL-0050_RLatLon0.09_PT066H.grib2 2026-05-02 14:58 359K
20260502T12Z_MSC_RDPS_RelativeHumidity_IsbL-0100_RLatLon0.09_PT066H.grib2 2026-05-02 14:58 286K
20260502T12Z_MSC_RDPS_RelativeHumidity_IsbL-0150_RLatLon0.09_PT066H.grib2 2026-05-02 14:58 418K
20260502T12Z_MSC_RDPS_RelativeHumidity_IsbL-0175_RLatLon0.09_PT066H.grib2 2026-05-02 14:58 485K
20260502T12Z_MSC_RDPS_RelativeHumidity_IsbL-0200_RLatLon0.09_PT066H.grib2 2026-05-02 14:58 560K
20260502T12Z_MSC_RDPS_RelativeHumidity_IsbL-0225_RLatLon0.09_PT066H.grib2 2026-05-02 14:58 627K
20260502T12Z_MSC_RDPS_RelativeHumidity_IsbL-0250_RLatLon0.09_PT066H.grib2 2026-05-02 14:58 687K
20260502T12Z_MSC_RDPS_RelativeHumidity_IsbL-0275_RLatLon0.09_PT066H.grib2 2026-05-02 14:58 706K
20260502T12Z_MSC_RDPS_RelativeHumidity_IsbL-0300_RLatLon0.09_PT066H.grib2 2026-05-02 14:58 744K
20260502T12Z_MSC_RDPS_RelativeHumidity_IsbL-0350_RLatLon0.09_PT066H.grib2 2026-05-02 14:58 767K
20260502T12Z_MSC_RDPS_RelativeHumidity_IsbL-0400_RLatLon0.09_PT066H.grib2 2026-05-02 14:58 784K
20260502T12Z_MSC_RDPS_RelativeHumidity_IsbL-0450_RLatLon0.09_PT066H.grib2 2026-05-02 14:58 790K
20260502T12Z_MSC_RDPS_RelativeHumidity_IsbL-0500_RLatLon0.09_PT066H.grib2 2026-05-02 14:58 791K
20260502T12Z_MSC_RDPS_RelativeHumidity_IsbL-0550_RLatLon0.09_PT066H.grib2 2026-05-02 14:58 805K
20260502T12Z_MSC_RDPS_RelativeHumidity_IsbL-0600_RLatLon0.09_PT066H.grib2 2026-05-02 14:58 826K
20260502T12Z_MSC_RDPS_RelativeHumidity_IsbL-0650_RLatLon0.09_PT066H.grib2 2026-05-02 14:58 854K
20260502T12Z_MSC_RDPS_RelativeHumidity_IsbL-0700_RLatLon0.09_PT066H.grib2 2026-05-02 14:58 871K
20260502T12Z_MSC_RDPS_RelativeHumidity_IsbL-0750_RLatLon0.09_PT066H.grib2 2026-05-02 14:58 909K
20260502T12Z_MSC_RDPS_RelativeHumidity_IsbL-0800_RLatLon0.09_PT066H.grib2 2026-05-02 14:58 1.0M
20260502T12Z_MSC_RDPS_RelativeHumidity_IsbL-0850_RLatLon0.09_PT066H.grib2 2026-05-02 14:58 1.0M
20260502T12Z_MSC_RDPS_RelativeHumidity_IsbL-0875_RLatLon0.09_PT066H.grib2 2026-05-02 14:58 1.1M
20260502T12Z_MSC_RDPS_RelativeHumidity_IsbL-0900_RLatLon0.09_PT066H.grib2 2026-05-02 14:58 1.1M
20260502T12Z_MSC_RDPS_RelativeHumidity_IsbL-0925_RLatLon0.09_PT066H.grib2 2026-05-02 14:58 1.1M
20260502T12Z_MSC_RDPS_RelativeHumidity_IsbL-0950_RLatLon0.09_PT066H.grib2 2026-05-02 14:58 1.1M
20260502T12Z_MSC_RDPS_RelativeHumidity_IsbL-0970_RLatLon0.09_PT066H.grib2 2026-05-02 14:58 1.0M
20260502T12Z_MSC_RDPS_RelativeHumidity_IsbL-0985_RLatLon0.09_PT066H.grib2 2026-05-02 14:58 1.0M
20260502T12Z_MSC_RDPS_RelativeHumidity_IsbL-1000_RLatLon0.09_PT066H.grib2 2026-05-02 14:58 1.0M
20260502T12Z_MSC_RDPS_RelativeHumidity_IsbL-1015_RLatLon0.09_PT066H.grib2 2026-05-02 14:58 1.0M
20260502T12Z_MSC_RDPS_Runoff-Accum_Sfc_RLatLon0.09_PT066H.grib2 2026-05-02 14:58 64K
20260502T12Z_MSC_RDPS_SWEATIndex_Sfc_RLatLon0.09_PT066H.grib2 2026-05-02 14:58 2.4M
20260502T12Z_MSC_RDPS_SeeingIndex_EAtm_RLatLon0.09_PT066H.grib2 2026-05-02 14:58 1.0M
20260502T12Z_MSC_RDPS_SensibleHeatNetFlux_Sfc_RLatLon0.09_PT066H.grib2 2026-05-02 14:58 299K
20260502T12Z_MSC_RDPS_ShowalterIndex_IsbL-0500_RLatLon0.09_PT066H.grib2 2026-05-02 14:58 2.6M
20260502T12Z_MSC_RDPS_SkyTransparencyIndex_EAtm_RLatLon0.09_PT066H.grib2 2026-05-02 14:58 713K
20260502T12Z_MSC_RDPS_Snow-Accum12h_Sfc_RLatLon0.09_PT066H.grib2 2026-05-02 14:58 577K
20260502T12Z_MSC_RDPS_Snow-Accum1h_Sfc_RLatLon0.09_PT066H.grib2 2026-05-02 14:58 468K
20260502T12Z_MSC_RDPS_Snow-Accum24h_Sfc_RLatLon0.09_PT066H.grib2 2026-05-02 14:58 669K
20260502T12Z_MSC_RDPS_Snow-Accum3h_Sfc_RLatLon0.09_PT066H.grib2 2026-05-02 14:58 396K
20260502T12Z_MSC_RDPS_Snow-Accum6h_Sfc_RLatLon0.09_PT066H.grib2 2026-05-02 14:58 500K
20260502T12Z_MSC_RDPS_Snow-Accum_Sfc_RLatLon0.09_PT066H.grib2 2026-05-02 14:58 780K
20260502T12Z_MSC_RDPS_SnowDensity_Sfc_RLatLon0.09_PT066H.grib2 2026-05-02 14:58 176K
20260502T12Z_MSC_RDPS_SnowDepth_Sfc_RLatLon0.09_PT066H.grib2 2026-05-02 14:58 656K
20260502T12Z_MSC_RDPS_SoilTemp_DBS-0to10cm_RLatLon0.09_PT066H.grib2 2026-05-02 14:58 245K
20260502T12Z_MSC_RDPS_SoilTemp_Sfc_RLatLon0.09_PT066H.grib2 2026-05-02 14:58 270K
20260502T12Z_MSC_RDPS_SoilVolumetricIceContent_Sfc_RLatLon0.09_PT066H.grib2 2026-05-02 14:58 154K
20260502T12Z_MSC_RDPS_SoilVolumetricWaterContent_DBS-0to10cm_RLatLon0.09_PT066H.grib2 2026-05-02 14:58 277K
20260502T12Z_MSC_RDPS_SoilVolumetricWaterContent_DBS-0to1cm_RLatLon0.09_PT066H.grib2 2026-05-02 14:58 343K
20260502T12Z_MSC_RDPS_SpecificHumidity_AGL-120m_RLatLon0.09_PT066H.grib2 2026-05-02 14:58 485K
20260502T12Z_MSC_RDPS_SpecificHumidity_AGL-2m_RLatLon0.09_PT066H.grib2 2026-05-02 14:58 655K
20260502T12Z_MSC_RDPS_SpecificHumidity_AGL-40m_RLatLon0.09_PT066H.grib2 2026-05-02 14:58 491K
20260502T12Z_MSC_RDPS_SpecificHumidity_AGL-80m_RLatLon0.09_PT066H.grib2 2026-05-02 14:58 486K
20260502T12Z_MSC_RDPS_SpecificHumidity_IsbL-0001_RLatLon0.09_PT066H.grib2 2026-05-02 14:58 358K
20260502T12Z_MSC_RDPS_SpecificHumidity_IsbL-0005_RLatLon0.09_PT066H.grib2 2026-05-02 14:58 361K
20260502T12Z_MSC_RDPS_SpecificHumidity_IsbL-0010_RLatLon0.09_PT066H.grib2 2026-05-02 14:58 395K
20260502T12Z_MSC_RDPS_SpecificHumidity_IsbL-0020_RLatLon0.09_PT066H.grib2 2026-05-02 14:58 373K
20260502T12Z_MSC_RDPS_SpecificHumidity_IsbL-0030_RLatLon0.09_PT066H.grib2 2026-05-02 14:58 368K
20260502T12Z_MSC_RDPS_SpecificHumidity_IsbL-0050_RLatLon0.09_PT066H.grib2 2026-05-02 14:58 477K
20260502T12Z_MSC_RDPS_SpecificHumidity_IsbL-0100_RLatLon0.09_PT066H.grib2 2026-05-02 14:58 422K
20260502T12Z_MSC_RDPS_SpecificHumidity_IsbL-0150_RLatLon0.09_PT066H.grib2 2026-05-02 14:58 453K
20260502T12Z_MSC_RDPS_SpecificHumidity_IsbL-0175_RLatLon0.09_PT066H.grib2 2026-05-02 14:58 445K
20260502T12Z_MSC_RDPS_SpecificHumidity_IsbL-0200_RLatLon0.09_PT066H.grib2 2026-05-02 14:58 463K
20260502T12Z_MSC_RDPS_SpecificHumidity_IsbL-0225_RLatLon0.09_PT066H.grib2 2026-05-02 14:58 464K
20260502T12Z_MSC_RDPS_SpecificHumidity_IsbL-0250_RLatLon0.09_PT066H.grib2 2026-05-02 14:58 567K
20260502T12Z_MSC_RDPS_SpecificHumidity_IsbL-0275_RLatLon0.09_PT066H.grib2 2026-05-02 14:58 480K
20260502T12Z_MSC_RDPS_SpecificHumidity_IsbL-0300_RLatLon0.09_PT066H.grib2 2026-05-02 14:58 548K
20260502T12Z_MSC_RDPS_SpecificHumidity_IsbL-0350_RLatLon0.09_PT066H.grib2 2026-05-02 14:58 541K
20260502T12Z_MSC_RDPS_SpecificHumidity_IsbL-0400_RLatLon0.09_PT066H.grib2 2026-05-02 14:58 524K
20260502T12Z_MSC_RDPS_SpecificHumidity_IsbL-0450_RLatLon0.09_PT066H.grib2 2026-05-02 14:58 573K
20260502T12Z_MSC_RDPS_SpecificHumidity_IsbL-0500_RLatLon0.09_PT066H.grib2 2026-05-02 14:58 504K
20260502T12Z_MSC_RDPS_SpecificHumidity_IsbL-0550_RLatLon0.09_PT066H.grib2 2026-05-02 14:58 557K
20260502T12Z_MSC_RDPS_SpecificHumidity_IsbL-0600_RLatLon0.09_PT066H.grib2 2026-05-02 14:58 625K
20260502T12Z_MSC_RDPS_SpecificHumidity_IsbL-0650_RLatLon0.09_PT066H.grib2 2026-05-02 14:58 545K
20260502T12Z_MSC_RDPS_SpecificHumidity_IsbL-0700_RLatLon0.09_PT066H.grib2 2026-05-02 14:58 591K
20260502T12Z_MSC_RDPS_SpecificHumidity_IsbL-0750_RLatLon0.09_PT066H.grib2 2026-05-02 14:58 644K
20260502T12Z_MSC_RDPS_SpecificHumidity_IsbL-0800_RLatLon0.09_PT066H.grib2 2026-05-02 14:58 725K
20260502T12Z_MSC_RDPS_SpecificHumidity_IsbL-0850_RLatLon0.09_PT066H.grib2 2026-05-02 14:58 803K
20260502T12Z_MSC_RDPS_SpecificHumidity_IsbL-0875_RLatLon0.09_PT066H.grib2 2026-05-02 14:58 829K
20260502T12Z_MSC_RDPS_SpecificHumidity_IsbL-0900_RLatLon0.09_PT066H.grib2 2026-05-02 14:58 839K
20260502T12Z_MSC_RDPS_SpecificHumidity_IsbL-0925_RLatLon0.09_PT066H.grib2 2026-05-02 14:58 840K
20260502T12Z_MSC_RDPS_SpecificHumidity_IsbL-0950_RLatLon0.09_PT066H.grib2 2026-05-02 14:58 698K
20260502T12Z_MSC_RDPS_SpecificHumidity_IsbL-0970_RLatLon0.09_PT066H.grib2 2026-05-02 14:58 691K
20260502T12Z_MSC_RDPS_SpecificHumidity_IsbL-0985_RLatLon0.09_PT066H.grib2 2026-05-02 14:58 683K
20260502T12Z_MSC_RDPS_SpecificHumidity_IsbL-1000_RLatLon0.09_PT066H.grib2 2026-05-02 14:58 676K
20260502T12Z_MSC_RDPS_SpecificHumidity_IsbL-1015_RLatLon0.09_PT066H.grib2 2026-05-02 14:58 668K
20260502T12Z_MSC_RDPS_SpecificHumidity_Sfc_RLatLon0.09_PT066H.grib2 2026-05-02 14:58 298K
20260502T12Z_MSC_RDPS_StormRelativeHelicity_EtaL-10000_RLatLon0.09_PT066H.grib2 2026-05-02 14:58 1.1M
20260502T12Z_MSC_RDPS_StormSeverityIndex_EtaL-10000_RLatLon0.09_PT066H.grib2 2026-05-02 14:58 1.2M
20260502T12Z_MSC_RDPS_Thickness_IsbL-0850to0700_RLatLon0.09_PT066H.grib2 2026-05-02 14:58 178K
20260502T12Z_MSC_RDPS_Thickness_IsbL-1000to0500_RLatLon0.09_PT066H.grib2 2026-05-02 14:58 199K
20260502T12Z_MSC_RDPS_Thickness_IsbL-1000to0850_RLatLon0.09_PT066H.grib2 2026-05-02 14:58 260K
20260502T12Z_MSC_RDPS_TotalCloudCover_Sfc_RLatLon0.09_PT066H.grib2 2026-05-02 14:58 669K
20260502T12Z_MSC_RDPS_TotalTotalsIndex_Sfc_RLatLon0.09_PT066H.grib2 2026-05-02 14:58 2.4M
20260502T12Z_MSC_RDPS_UVIndex-ClearSky_Sfc_RLatLon0.09_PT066H.grib2 2026-05-02 14:58 130K
20260502T12Z_MSC_RDPS_UVIndex_Sfc_RLatLon0.09_PT066H.grib2 2026-05-02 14:58 213K
20260502T12Z_MSC_RDPS_UpwardLongwaveRadiationFlux_NTAtm_RLatLon0.09_PT066H.grib2 2026-05-02 14:58 490K
20260502T12Z_MSC_RDPS_UpwardShortwaveRadiationFlux_NTAtm_RLatLon0.09_PT066H.grib2 2026-05-02 14:58 179K
20260502T12Z_MSC_RDPS_VerticalVelocity_IsbL-0250_RLatLon0.09_PT066H.grib2 2026-05-02 14:58 561K
20260502T12Z_MSC_RDPS_VerticalVelocity_IsbL-0500_RLatLon0.09_PT066H.grib2 2026-05-02 14:58 549K
20260502T12Z_MSC_RDPS_VerticalVelocity_IsbL-0700_RLatLon0.09_PT066H.grib2 2026-05-02 14:58 558K
20260502T12Z_MSC_RDPS_VerticalVelocity_IsbL-0850_RLatLon0.09_PT066H.grib2 2026-05-02 14:58 705K
20260502T12Z_MSC_RDPS_VerticalWindShear_EtaL-6500_RLatLon0.09_PT066H.grib2 2026-05-02 14:58 1.2M
20260502T12Z_MSC_RDPS_WindChill_Sfc_RLatLon0.09_PT066H.grib2 2026-05-02 14:58 1.1M
20260502T12Z_MSC_RDPS_WindDir_AGL-10m_RLatLon0.09_PT066H.grib2 2026-05-02 14:58 953K
20260502T12Z_MSC_RDPS_WindDir_AGL-120m_RLatLon0.09_PT066H.grib2 2026-05-02 14:58 587K
20260502T12Z_MSC_RDPS_WindDir_AGL-40m_RLatLon0.09_PT066H.grib2 2026-05-02 14:58 619K
20260502T12Z_MSC_RDPS_WindDir_AGL-80m_RLatLon0.09_PT066H.grib2 2026-05-02 14:58 600K
20260502T12Z_MSC_RDPS_WindDir_IsbL-0001_RLatLon0.09_PT066H.grib2 2026-05-02 14:58 315K
20260502T12Z_MSC_RDPS_WindDir_IsbL-0005_RLatLon0.09_PT066H.grib2 2026-05-02 14:58 397K
20260502T12Z_MSC_RDPS_WindDir_IsbL-0010_RLatLon0.09_PT066H.grib2 2026-05-02 14:58 395K
20260502T12Z_MSC_RDPS_WindDir_IsbL-0020_RLatLon0.09_PT066H.grib2 2026-05-02 14:58 417K
20260502T12Z_MSC_RDPS_WindDir_IsbL-0030_RLatLon0.09_PT066H.grib2 2026-05-02 14:58 423K
20260502T12Z_MSC_RDPS_WindDir_IsbL-0050_RLatLon0.09_PT066H.grib2 2026-05-02 14:58 428K
20260502T12Z_MSC_RDPS_WindDir_IsbL-0100_RLatLon0.09_PT066H.grib2 2026-05-02 14:58 424K
20260502T12Z_MSC_RDPS_WindDir_IsbL-0150_RLatLon0.09_PT066H.grib2 2026-05-02 14:58 402K
20260502T12Z_MSC_RDPS_WindDir_IsbL-0175_RLatLon0.09_PT066H.grib2 2026-05-02 14:58 427K
20260502T12Z_MSC_RDPS_WindDir_IsbL-0200_RLatLon0.09_PT066H.grib2 2026-05-02 14:58 444K
20260502T12Z_MSC_RDPS_WindDir_IsbL-0225_RLatLon0.09_PT066H.grib2 2026-05-02 14:58 451K
20260502T12Z_MSC_RDPS_WindDir_IsbL-0250_RLatLon0.09_PT066H.grib2 2026-05-02 14:58 452K
20260502T12Z_MSC_RDPS_WindDir_IsbL-0275_RLatLon0.09_PT066H.grib2 2026-05-02 14:58 470K
20260502T12Z_MSC_RDPS_WindDir_IsbL-0300_RLatLon0.09_PT066H.grib2 2026-05-02 14:58 473K
20260502T12Z_MSC_RDPS_WindDir_IsbL-0350_RLatLon0.09_PT066H.grib2 2026-05-02 14:58 496K
20260502T12Z_MSC_RDPS_WindDir_IsbL-0400_RLatLon0.09_PT066H.grib2 2026-05-02 14:58 514K
20260502T12Z_MSC_RDPS_WindDir_IsbL-0450_RLatLon0.09_PT066H.grib2 2026-05-02 14:58 529K
20260502T12Z_MSC_RDPS_WindDir_IsbL-0500_RLatLon0.09_PT066H.grib2 2026-05-02 14:58 539K
20260502T12Z_MSC_RDPS_WindDir_IsbL-0550_RLatLon0.09_PT066H.grib2 2026-05-02 14:58 548K
20260502T12Z_MSC_RDPS_WindDir_IsbL-0600_RLatLon0.09_PT066H.grib2 2026-05-02 14:58 573K
20260502T12Z_MSC_RDPS_WindDir_IsbL-0650_RLatLon0.09_PT066H.grib2 2026-05-02 14:58 613K
20260502T12Z_MSC_RDPS_WindDir_IsbL-0700_RLatLon0.09_PT066H.grib2 2026-05-02 14:58 657K
20260502T12Z_MSC_RDPS_WindDir_IsbL-0750_RLatLon0.09_PT066H.grib2 2026-05-02 14:58 703K
20260502T12Z_MSC_RDPS_WindDir_IsbL-0800_RLatLon0.09_PT066H.grib2 2026-05-02 14:58 770K
20260502T12Z_MSC_RDPS_WindDir_IsbL-0850_RLatLon0.09_PT066H.grib2 2026-05-02 14:58 856K
20260502T12Z_MSC_RDPS_WindDir_IsbL-0875_RLatLon0.09_PT066H.grib2 2026-05-02 14:58 890K
20260502T12Z_MSC_RDPS_WindDir_IsbL-0900_RLatLon0.09_PT066H.grib2 2026-05-02 14:58 902K
20260502T12Z_MSC_RDPS_WindDir_IsbL-0925_RLatLon0.09_PT066H.grib2 2026-05-02 14:58 906K
20260502T12Z_MSC_RDPS_WindDir_IsbL-0950_RLatLon0.09_PT066H.grib2 2026-05-02 14:58 898K
20260502T12Z_MSC_RDPS_WindDir_IsbL-0970_RLatLon0.09_PT066H.grib2 2026-05-02 14:58 903K
20260502T12Z_MSC_RDPS_WindDir_IsbL-0985_RLatLon0.09_PT066H.grib2 2026-05-02 14:58 911K
20260502T12Z_MSC_RDPS_WindDir_IsbL-1000_RLatLon0.09_PT066H.grib2 2026-05-02 14:58 925K
20260502T12Z_MSC_RDPS_WindDir_IsbL-1015_RLatLon0.09_PT066H.grib2 2026-05-02 14:58 942K
20260502T12Z_MSC_RDPS_WindGust-Max_AGL-10m_RLatLon0.09_PT066H.grib2 2026-05-02 14:58 969K
20260502T12Z_MSC_RDPS_WindGust-Min_AGL-10m_RLatLon0.09_PT066H.grib2 2026-05-02 14:58 1.0M
20260502T12Z_MSC_RDPS_WindGust_AGL-10m_RLatLon0.09_PT066H.grib2 2026-05-02 14:58 1.0M
20260502T12Z_MSC_RDPS_WindSpeed_AGL-10m_RLatLon0.09_PT066H.grib2 2026-05-02 14:58 848K
20260502T12Z_MSC_RDPS_WindSpeed_AGL-120m_RLatLon0.09_PT066H.grib2 2026-05-02 14:58 542K
20260502T12Z_MSC_RDPS_WindSpeed_AGL-40m_RLatLon0.09_PT066H.grib2 2026-05-02 14:58 547K
20260502T12Z_MSC_RDPS_WindSpeed_AGL-80m_RLatLon0.09_PT066H.grib2 2026-05-02 14:58 543K
20260502T12Z_MSC_RDPS_WindSpeed_IsbL-0001_RLatLon0.09_PT066H.grib2 2026-05-02 14:58 258K
20260502T12Z_MSC_RDPS_WindSpeed_IsbL-0005_RLatLon0.09_PT066H.grib2 2026-05-02 14:58 354K
20260502T12Z_MSC_RDPS_WindSpeed_IsbL-0010_RLatLon0.09_PT066H.grib2 2026-05-02 14:58 367K
20260502T12Z_MSC_RDPS_WindSpeed_IsbL-0020_RLatLon0.09_PT066H.grib2 2026-05-02 14:58 421K
20260502T12Z_MSC_RDPS_WindSpeed_IsbL-0030_RLatLon0.09_PT066H.grib2 2026-05-02 14:58 322K
20260502T12Z_MSC_RDPS_WindSpeed_IsbL-0050_RLatLon0.09_PT066H.grib2 2026-05-02 14:58 356K
20260502T12Z_MSC_RDPS_WindSpeed_IsbL-0100_RLatLon0.09_PT066H.grib2 2026-05-02 14:58 484K
20260502T12Z_MSC_RDPS_WindSpeed_IsbL-0150_RLatLon0.09_PT066H.grib2 2026-05-02 14:58 384K
20260502T12Z_MSC_RDPS_WindSpeed_IsbL-0175_RLatLon0.09_PT066H.grib2 2026-05-02 14:58 432K
20260502T12Z_MSC_RDPS_WindSpeed_IsbL-0200_RLatLon0.09_PT066H.grib2 2026-05-02 14:58 445K
20260502T12Z_MSC_RDPS_WindSpeed_IsbL-0225_RLatLon0.09_PT066H.grib2 2026-05-02 14:58 451K
20260502T12Z_MSC_RDPS_WindSpeed_IsbL-0250_RLatLon0.09_PT066H.grib2 2026-05-02 14:58 454K
20260502T12Z_MSC_RDPS_WindSpeed_IsbL-0275_RLatLon0.09_PT066H.grib2 2026-05-02 14:58 469K
20260502T12Z_MSC_RDPS_WindSpeed_IsbL-0300_RLatLon0.09_PT066H.grib2 2026-05-02 14:58 467K
20260502T12Z_MSC_RDPS_WindSpeed_IsbL-0350_RLatLon0.09_PT066H.grib2 2026-05-02 14:58 479K
20260502T12Z_MSC_RDPS_WindSpeed_IsbL-0400_RLatLon0.09_PT066H.grib2 2026-05-02 14:58 481K
20260502T12Z_MSC_RDPS_WindSpeed_IsbL-0450_RLatLon0.09_PT066H.grib2 2026-05-02 14:58 482K
20260502T12Z_MSC_RDPS_WindSpeed_IsbL-0500_RLatLon0.09_PT066H.grib2 2026-05-02 14:58 466K
20260502T12Z_MSC_RDPS_WindSpeed_IsbL-0550_RLatLon0.09_PT066H.grib2 2026-05-02 14:58 583K
20260502T12Z_MSC_RDPS_WindSpeed_IsbL-0600_RLatLon0.09_PT066H.grib2 2026-05-02 14:58 593K
20260502T12Z_MSC_RDPS_WindSpeed_IsbL-0650_RLatLon0.09_PT066H.grib2 2026-05-02 14:58 612K
20260502T12Z_MSC_RDPS_WindSpeed_IsbL-0700_RLatLon0.09_PT066H.grib2 2026-05-02 14:58 632K
20260502T12Z_MSC_RDPS_WindSpeed_IsbL-0750_RLatLon0.09_PT066H.grib2 2026-05-02 14:58 659K
20260502T12Z_MSC_RDPS_WindSpeed_IsbL-0800_RLatLon0.09_PT066H.grib2 2026-05-02 14:58 756K
20260502T12Z_MSC_RDPS_WindSpeed_IsbL-0850_RLatLon0.09_PT066H.grib2 2026-05-02 14:58 827K
20260502T12Z_MSC_RDPS_WindSpeed_IsbL-0875_RLatLon0.09_PT066H.grib2 2026-05-02 14:58 853K
20260502T12Z_MSC_RDPS_WindSpeed_IsbL-0900_RLatLon0.09_PT066H.grib2 2026-05-02 14:58 867K
20260502T12Z_MSC_RDPS_WindSpeed_IsbL-0925_RLatLon0.09_PT066H.grib2 2026-05-02 14:58 877K
20260502T12Z_MSC_RDPS_WindSpeed_IsbL-0950_RLatLon0.09_PT066H.grib2 2026-05-02 14:58 876K
20260502T12Z_MSC_RDPS_WindSpeed_IsbL-0970_RLatLon0.09_PT066H.grib2 2026-05-02 14:58 874K
20260502T12Z_MSC_RDPS_WindSpeed_IsbL-0985_RLatLon0.09_PT066H.grib2 2026-05-02 14:58 867K
20260502T12Z_MSC_RDPS_WindSpeed_IsbL-1000_RLatLon0.09_PT066H.grib2 2026-05-02 14:58 856K
20260502T12Z_MSC_RDPS_WindSpeed_IsbL-1015_RLatLon0.09_PT066H.grib2 2026-05-02 14:58 848K
20260502T12Z_MSC_RDPS_WindU_AGL-10m_RLatLon0.09_PT066H.grib2 2026-05-02 14:58 433K
20260502T12Z_MSC_RDPS_WindU_AGL-120m_RLatLon0.09_PT066H.grib2 2026-05-02 14:58 535K
20260502T12Z_MSC_RDPS_WindU_AGL-40m_RLatLon0.09_PT066H.grib2 2026-05-02 14:58 539K
20260502T12Z_MSC_RDPS_WindU_AGL-80m_RLatLon0.09_PT066H.grib2 2026-05-02 14:58 537K
20260502T12Z_MSC_RDPS_WindU_IsbL-0001_RLatLon0.09_PT066H.grib2 2026-05-02 14:58 247K
20260502T12Z_MSC_RDPS_WindU_IsbL-0005_RLatLon0.09_PT066H.grib2 2026-05-02 14:58 288K
20260502T12Z_MSC_RDPS_WindU_IsbL-0010_RLatLon0.09_PT066H.grib2 2026-05-02 14:58 299K
20260502T12Z_MSC_RDPS_WindU_IsbL-0020_RLatLon0.09_PT066H.grib2 2026-05-02 14:58 316K
20260502T12Z_MSC_RDPS_WindU_IsbL-0030_RLatLon0.09_PT066H.grib2 2026-05-02 14:58 354K
20260502T12Z_MSC_RDPS_WindU_IsbL-0050_RLatLon0.09_PT066H.grib2 2026-05-02 14:58 384K
20260502T12Z_MSC_RDPS_WindU_IsbL-0100_RLatLon0.09_PT066H.grib2 2026-05-02 14:58 340K
20260502T12Z_MSC_RDPS_WindU_IsbL-0150_RLatLon0.09_PT066H.grib2 2026-05-02 14:58 399K
20260502T12Z_MSC_RDPS_WindU_IsbL-0175_RLatLon0.09_PT066H.grib2 2026-05-02 14:58 425K
20260502T12Z_MSC_RDPS_WindU_IsbL-0200_RLatLon0.09_PT066H.grib2 2026-05-02 14:58 339K
20260502T12Z_MSC_RDPS_WindU_IsbL-0225_RLatLon0.09_PT066H.grib2 2026-05-02 14:58 344K
20260502T12Z_MSC_RDPS_WindU_IsbL-0250_RLatLon0.09_PT066H.grib2 2026-05-02 14:58 345K
20260502T12Z_MSC_RDPS_WindU_IsbL-0275_RLatLon0.09_PT066H.grib2 2026-05-02 14:58 357K
20260502T12Z_MSC_RDPS_WindU_IsbL-0300_RLatLon0.09_PT066H.grib2 2026-05-02 14:58 355K
20260502T12Z_MSC_RDPS_WindU_IsbL-0350_RLatLon0.09_PT066H.grib2 2026-05-02 14:58 364K
20260502T12Z_MSC_RDPS_WindU_IsbL-0400_RLatLon0.09_PT066H.grib2 2026-05-02 14:58 366K
20260502T12Z_MSC_RDPS_WindU_IsbL-0450_RLatLon0.09_PT066H.grib2 2026-05-02 14:58 470K
20260502T12Z_MSC_RDPS_WindU_IsbL-0500_RLatLon0.09_PT066H.grib2 2026-05-02 14:58 472K
20260502T12Z_MSC_RDPS_WindU_IsbL-0550_RLatLon0.09_PT066H.grib2 2026-05-02 14:58 473K
20260502T12Z_MSC_RDPS_WindU_IsbL-0600_RLatLon0.09_PT066H.grib2 2026-05-02 14:58 482K
20260502T12Z_MSC_RDPS_WindU_IsbL-0650_RLatLon0.09_PT066H.grib2 2026-05-02 14:58 483K
20260502T12Z_MSC_RDPS_WindU_IsbL-0700_RLatLon0.09_PT066H.grib2 2026-05-02 14:58 502K
20260502T12Z_MSC_RDPS_WindU_IsbL-0750_RLatLon0.09_PT066H.grib2 2026-05-02 14:58 540K
20260502T12Z_MSC_RDPS_WindU_IsbL-0800_RLatLon0.09_PT066H.grib2 2026-05-02 14:58 583K
20260502T12Z_MSC_RDPS_WindU_IsbL-0850_RLatLon0.09_PT066H.grib2 2026-05-02 14:58 643K
20260502T12Z_MSC_RDPS_WindU_IsbL-0875_RLatLon0.09_PT066H.grib2 2026-05-02 14:58 663K
20260502T12Z_MSC_RDPS_WindU_IsbL-0900_RLatLon0.09_PT066H.grib2 2026-05-02 14:58 671K
20260502T12Z_MSC_RDPS_WindU_IsbL-0925_RLatLon0.09_PT066H.grib2 2026-05-02 14:58 675K
20260502T12Z_MSC_RDPS_WindU_IsbL-0950_RLatLon0.09_PT066H.grib2 2026-05-02 14:58 664K
20260502T12Z_MSC_RDPS_WindU_IsbL-0970_RLatLon0.09_PT066H.grib2 2026-05-02 14:58 660K
20260502T12Z_MSC_RDPS_WindU_IsbL-0985_RLatLon0.09_PT066H.grib2 2026-05-02 14:58 652K
20260502T12Z_MSC_RDPS_WindU_IsbL-1000_RLatLon0.09_PT066H.grib2 2026-05-02 14:58 787K
20260502T12Z_MSC_RDPS_WindU_IsbL-1015_RLatLon0.09_PT066H.grib2 2026-05-02 14:58 828K
20260502T12Z_MSC_RDPS_WindV_AGL-10m_RLatLon0.09_PT066H.grib2 2026-05-02 14:58 436K
20260502T12Z_MSC_RDPS_WindV_AGL-120m_RLatLon0.09_PT066H.grib2 2026-05-02 14:58 537K
20260502T12Z_MSC_RDPS_WindV_AGL-40m_RLatLon0.09_PT066H.grib2 2026-05-02 14:58 542K
20260502T12Z_MSC_RDPS_WindV_AGL-80m_RLatLon0.09_PT066H.grib2 2026-05-02 14:58 539K
20260502T12Z_MSC_RDPS_WindV_IsbL-0001_RLatLon0.09_PT066H.grib2 2026-05-02 14:58 251K
20260502T12Z_MSC_RDPS_WindV_IsbL-0005_RLatLon0.09_PT066H.grib2 2026-05-02 14:58 291K
20260502T12Z_MSC_RDPS_WindV_IsbL-0010_RLatLon0.09_PT066H.grib2 2026-05-02 14:58 301K
20260502T12Z_MSC_RDPS_WindV_IsbL-0020_RLatLon0.09_PT066H.grib2 2026-05-02 14:58 318K
20260502T12Z_MSC_RDPS_WindV_IsbL-0030_RLatLon0.09_PT066H.grib2 2026-05-02 14:58 356K
20260502T12Z_MSC_RDPS_WindV_IsbL-0050_RLatLon0.09_PT066H.grib2 2026-05-02 14:58 350K
20260502T12Z_MSC_RDPS_WindV_IsbL-0100_RLatLon0.09_PT066H.grib2 2026-05-02 14:58 339K
20260502T12Z_MSC_RDPS_WindV_IsbL-0150_RLatLon0.09_PT066H.grib2 2026-05-02 14:58 398K
20260502T12Z_MSC_RDPS_WindV_IsbL-0175_RLatLon0.09_PT066H.grib2 2026-05-02 14:58 327K
20260502T12Z_MSC_RDPS_WindV_IsbL-0200_RLatLon0.09_PT066H.grib2 2026-05-02 14:58 364K
20260502T12Z_MSC_RDPS_WindV_IsbL-0225_RLatLon0.09_PT066H.grib2 2026-05-02 14:58 368K
20260502T12Z_MSC_RDPS_WindV_IsbL-0250_RLatLon0.09_PT066H.grib2 2026-05-02 14:58 369K
20260502T12Z_MSC_RDPS_WindV_IsbL-0275_RLatLon0.09_PT066H.grib2 2026-05-02 14:58 382K
20260502T12Z_MSC_RDPS_WindV_IsbL-0300_RLatLon0.09_PT066H.grib2 2026-05-02 14:58 381K
20260502T12Z_MSC_RDPS_WindV_IsbL-0350_RLatLon0.09_PT066H.grib2 2026-05-02 14:58 387K
20260502T12Z_MSC_RDPS_WindV_IsbL-0400_RLatLon0.09_PT066H.grib2 2026-05-02 14:58 366K
20260502T12Z_MSC_RDPS_WindV_IsbL-0450_RLatLon0.09_PT066H.grib2 2026-05-02 14:58 366K
20260502T12Z_MSC_RDPS_WindV_IsbL-0500_RLatLon0.09_PT066H.grib2 2026-05-02 14:58 366K
20260502T12Z_MSC_RDPS_WindV_IsbL-0550_RLatLon0.09_PT066H.grib2 2026-05-02 14:58 470K
20260502T12Z_MSC_RDPS_WindV_IsbL-0600_RLatLon0.09_PT066H.grib2 2026-05-02 14:58 479K
20260502T12Z_MSC_RDPS_WindV_IsbL-0650_RLatLon0.09_PT066H.grib2 2026-05-02 14:58 495K
20260502T12Z_MSC_RDPS_WindV_IsbL-0700_RLatLon0.09_PT066H.grib2 2026-05-02 14:58 513K
20260502T12Z_MSC_RDPS_WindV_IsbL-0750_RLatLon0.09_PT066H.grib2 2026-05-02 14:58 535K
20260502T12Z_MSC_RDPS_WindV_IsbL-0800_RLatLon0.09_PT066H.grib2 2026-05-02 14:58 567K
20260502T12Z_MSC_RDPS_WindV_IsbL-0850_RLatLon0.09_PT066H.grib2 2026-05-02 14:58 628K
20260502T12Z_MSC_RDPS_WindV_IsbL-0875_RLatLon0.09_PT066H.grib2 2026-05-02 14:58 652K
20260502T12Z_MSC_RDPS_WindV_IsbL-0900_RLatLon0.09_PT066H.grib2 2026-05-02 14:58 663K
20260502T12Z_MSC_RDPS_WindV_IsbL-0925_RLatLon0.09_PT066H.grib2 2026-05-02 14:58 669K
20260502T12Z_MSC_RDPS_WindV_IsbL-0950_RLatLon0.09_PT066H.grib2 2026-05-02 14:58 665K
20260502T12Z_MSC_RDPS_WindV_IsbL-0970_RLatLon0.09_PT066H.grib2 2026-05-02 14:58 663K
20260502T12Z_MSC_RDPS_WindV_IsbL-0985_RLatLon0.09_PT066H.grib2 2026-05-02 14:58 657K
20260502T12Z_MSC_RDPS_WindV_IsbL-1000_RLatLon0.09_PT066H.grib2 2026-05-02 14:58 791K
20260502T12Z_MSC_RDPS_WindV_IsbL-1015_RLatLon0.09_PT066H.grib2 2026-05-02 14:58 785K